"2010-12-10 00:00:00",409261,5.154,268.3,8.07,1.101,9.75,103.7301,8.82,9.76,25.95,0,110.1,13.38,9.61,230.3
"2010-12-10 00:00:30",409262,4.672,277.2,8.57,0.419,8.46,103.733,8.83,9.73,26.04,0,110.1,13.42,9.61,239.2
"2010-12-10 00:01:00",409263,4.558,288.4,2.148,0.093,8.46,103.7313,8.83,9.72,26.32,0,110.1,13.42,9.61,250.4
"2010-12-10 00:01:30",409264,5.412,298.8,6.59,1.233,10.57,103.7336,8.83,9.71,26.48,0,110.1,13.39,9.62,260.8
"2010-12-10 00:02:00",409265,6.015,301.9,7.347,1.235,12.41,103.7342,8.83,9.95,26.82,0,110.1,13.39,9.62,263.9
"2010-12-10 00:02:30",409266,6.12,300.8,7.237,1.108,13.16,103.7345,8.84,9.98,26.9,0,110.1,13.39,9.62,262.8
"2010-12-10 00:03:00",409267,5.685,302.7,6.977,1.235,12.74,103.738,8.84,9.93,26.84,0,110.1,13.39,9.63,264.7
"2010-12-10 00:03:30",409268,4.369,291.1,6.059,1.171,10.15,103.7368,8.84,9.85,26.72,0,110.1,13.39,9.62,253.1
"2010-12-10 00:04:00",409269,2.988,287.2,2.954,0.374,8.19,103.7383,8.84,9.71,26.55,0,110.1,13.42,9.63,249.2
"2010-12-10 00:04:30",409270,2.755,276.6,8.97,0.487,8.54,103.7324,8.83,9.69,26.35,0,110.1,13.42,9.61,238.6
"2010-12-10 00:05:00",409271,2.244,287.4,3.549,0.13,8.75,103.7129,8.78,9.69,26.54,0,110.1,13.42,9.56,249.4
"2010-12-10 00:05:30",409272,3.447,305.8,9.34,1.329,11.82,103.7351,8.84,9.94,26.87,0,110.1,13.39,9.62,267.8
"2010-12-10 00:06:00",409273,3.896,303.5,7.262,1.328,12.75,103.7462,8.86,9.95,26.94,0,110,13.39,9.65,265.5
"2010-12-10 00:06:30",409274,2.873,295.2,7.568,1.351,11.47,103.7474,8.87,9.88,26.73,0,110,13.39,9.65,257.2
"2010-12-10 00:07:00",409275,3.342,293.2,6.359,1.347,11.86,103.7497,8.87,9.94,26.75,0,110.1,13.39,9.66,255.2
"2010-12-10 00:07:30",409276,2.173,283.8,6.516,1.017,10.18,103.7653,8.91,9.87,26.62,0,110.1,13.39,9.70,245.8
"2010-12-10 00:08:00",409277,1.562,282.1,4.534,0.097,8.46,103.7843,8.96,9.76,26.48,0,110.1,13.42,9.75,244.1
"2010-12-10 00:08:30",409278,1.377,286.7,2.376,0.099,8.17,103.7886,8.97,9.75,26.48,0,110,13.42,9.76,248.7
"2010-12-10 00:09:00",409279,1.475,296.5,4.812,0.157,8.51,103.7903,8.98,9.76,26.45,0,110.1,13.42,9.76,258.5
"2010-12-10 00:09:30",409280,1.529,298.1,1.698,0.082,8.92,103.7921,8.98,9.76,26.38,0,110.1,13.42,9.77,260.1
"2010-12-10 00:10:00",409281,3.453,306.4,6.072,1.305,12.66,103.7918,8.98,9.91,26.53,0,110.1,13.39,9.77,268.4
"2010-12-10 00:10:30",409282,3.367,307.4,6.069,1.245,12.58,103.793,8.98,10.04,26.6,0,110.1,13.39,9.77,269.4
"2010-12-10 00:11:00",409283,2.923,303.9,10.05,1.221,11.06,103.795,8.99,9.97,26.43,0,110.1,13.39,9.77,265.9
"2010-12-10 00:11:30",409284,5.638,317,8.61,1.261,12.3,103.7947,8.99,10.05,26.57,0,110,13.39,9.77,279.0
"2010-12-10 00:12:00",409285,4.067,316,6.539,1.483,10.13,103.7818,8.96,9.9,26.47,0,110,13.39,9.74,278.0
"2010-12-10 00:12:30",409286,3.148,320.8,2.899,0.215,8.74,103.7662,8.92,9.75,26.3,0,110,13.42,9.70,282.8
"2010-12-10 00:13:00",409287,3.32,320.8,1.827,0.115,8.78,103.7928,8.98,9.78,26.23,0,110,13.42,9.77,282.8
"2010-12-10 00:13:30",409288,3.921,326,7.296,1.039,10.55,103.7953,8.99,9.96,26.45,0,110.1,13.39,9.77,288.0
"2010-12-10 00:14:00",409289,5.437,335.1,5.906,1.201,13.44,103.795,8.99,10.02,26.29,0,110,13.39,9.77,297.1
"2010-12-10 00:14:30",409290,4.73,328.5,7.022,1.192,11.99,103.8139,9.04,10.01,26.07,0,110.1,13.39,9.82,290.5
"2010-12-10 00:15:00",409291,5.527,341.6,7.818,0.937,13.23,103.8292,9.08,10.01,25.91,0,110,13.39,9.86,303.6
"2010-12-10 00:15:30",409292,4.412,335.2,6.538,1.433,11.45,103.8312,9.08,10.12,25.92,0,110,13.39,9.87,297.2
"2010-12-10 00:16:00",409293,2.65,333.1,5.199,0.745,9.31,103.8594,9.15,9.93,25.61,0,110,13.39,9.94,295.1
"2010-12-10 00:16:30",409294,2.031,322.2,3.332,0.152,8.52,103.8631,9.16,9.93,25.47,0,110,13.43,9.95,284.2
"2010-12-10 00:17:00",409295,1.943,323.3,2.86,0.059,8.92,103.8676,9.18,9.94,25.37,0,110,13.43,9.96,285.3
"2010-12-10 00:17:30",409296,1.976,327.7,1.084,0.079,9.46,103.88,9.21,9.96,25.32,0,110,13.43,9.99,289.7
"2010-12-10 00:18:00",409297,3.195,335.7,6.792,1.348,12.24,103.8874,9.23,10.18,25.47,0,110.1,13.4,10.01,297.7
"2010-12-10 00:18:30",409298,3.983,336.4,7.144,1.185,13.12,103.897,9.25,10.27,25.47,0,110,13.4,10.03,298.4
"2010-12-10 00:19:00",409299,3.422,338,7.565,1.309,12.28,103.897,9.25,10.28,25.43,0,110,13.4,10.03,300.0
"2010-12-10 00:19:30",409300,4.052,343.7,7.964,1.166,12.49,103.8973,9.25,10.21,25.24,0,110,13.39,10.04,305.7
"2010-12-10 00:20:00",409301,1.87,328.3,2.46,0.114,8.57,103.9091,9.28,10.06,25.02,0,110,13.43,10.07,290.3
"2010-12-10 00:20:30",409302,2.375,332.2,2.532,0.23,8.36,103.9224,9.32,10.07,25,0,110,13.43,10.10,294.2
"2010-12-10 00:21:00",409303,2.574,331,2.654,0.067,8.63,103.9193,9.31,10.07,25.24,0,110,13.43,10.09,293.0
"2010-12-10 00:21:30",409304,2.437,323.6,2.907,0.198,9.18,103.8975,9.25,10.08,25.22,0,110,13.43,10.04,285.6
"2010-12-10 00:22:00",409305,2.458,325.7,3.842,0.196,9.94,103.8973,9.25,10.2,25.33,0,110,13.44,10.04,287.7
"2010-12-10 00:22:30",409306,4.425,355.2,10.19,1.099,13.57,103.8939,9.24,10.3,25.75,0,110,13.4,10.03,317.2
"2010-12-10 00:23:00",409307,5.201,354.6,10.91,0.573,14.11,103.854,9.14,10.27,26.27,0,110,13.4,9.92,316.6
"2010-12-10 00:23:30",409308,4.253,350.6,10.73,1.25,12.14,103.8007,9,10.18,26.59,0,110,13.4,9.79,312.6
"2010-12-10 00:24:00",409309,3.095,346.1,6.528,0.811,8.9,103.7538,8.88,9.9,26.57,0,110,13.4,9.67,308.1
"2010-12-10 00:24:30",409310,2.943,344.3,4.635,0.327,7.725,103.7273,8.82,9.77,26.63,0,110,13.43,9.60,306.3
"2010-12-10 00:25:00",409311,2.747,324.3,12.06,0.311,8.03,103.6965,8.74,9.71,26.67,0,110,13.43,9.52,286.3
"2010-12-10 00:25:30",409312,2.214,333.6,8.24,0.164,8.73,103.6937,8.73,9.69,26.62,0,110,13.43,9.51,295.6
"2010-12-10 00:26:00",409313,2.421,335.8,7.324,0.667,9.25,103.6937,8.73,9.74,26.85,0,110,13.39,9.51,297.8
"2010-12-10 00:26:30",409314,4.337,19.26,11.18,1.299,12.63,103.6781,8.69,9.81,27.09,0,110,13.39,9.47,341.3
"2010-12-10 00:27:00",409315,5.474,21.58,14.11,1.239,14.3,103.6598,8.64,9.92,27.17,0,110,13.39,9.43,343.6
"2010-12-10 00:27:30",409316,6.763,30.85,6.611,1.035,13.19,103.6598,8.64,9.9,27.13,0,110,13.39,9.43,352.9
"2010-12-10 00:28:00",409317,5.171,17.44,5.66,0.851,9.34,103.6598,8.64,9.66,26.82,0,110,13.39,9.43,339.4
"2010-12-10 00:28:30",409318,4.968,22.24,5.611,0.376,8.19,103.6451,8.61,9.53,26.75,0,110,13.42,9.39,344.2
"2010-12-10 00:29:00",409319,5.268,21.42,7.132,1.183,10.41,103.6259,8.56,9.59,26.72,0,110,13.39,9.34,343.4
"2010-12-10 00:29:30",409320,4.514,21.28,4.554,1.159,9.96,103.6259,8.56,9.54,26.56,0,110,13.39,9.34,343.3
"2010-12-10 00:30:00",409321,6.571,30.6,4.992,1.091,14.16,103.6259,8.56,9.78,26.76,0,110,13.4,9.34,352.6
"2010-12-10 00:30:30",409322,6.072,29.4,4.126,0.983,14,103.6259,8.56,9.78,26.89,0,110,13.4,9.34,351.4
"2010-12-10 00:31:00",409323,5.482,27.54,5.479,1.393,11.26,103.631,8.57,9.61,26.93,0,110,13.4,9.35,349.5
"2010-12-10 00:31:30",409324,3.673,19.67,2.569,0.309,8.55,103.6553,8.63,9.45,26.81,0,110,13.44,9.41,341.7
"2010-12-10 00:32:00",409325,3.307,17.49,3.491,0.351,8.58,103.6598,8.64,9.47,26.63,0,110,13.44,9.43,339.5
"2010-12-10 00:32:30",409326,3.675,18.86,3.797,0.823,10.23,103.6598,8.64,9.6,26.66,0,110,13.4,9.43,340.9
"2010-12-10 00:33:00",409327,4.339,16.97,5.054,1.413,11.36,103.6598,8.64,9.53,26.45,0,110,13.4,9.43,339.0
"2010-12-10 00:33:30",409328,5.15,25.89,4.89,0.832,14.14,103.6598,8.64,9.76,26.76,0,110,13.4,9.43,347.9
"2010-12-10 00:34:00",409329,4.558,24.76,5.547,1.165,12.71,103.6598,8.64,9.74,26.79,0,110,13.4,9.43,346.8
"2010-12-10 00:34:30",409330,3.753,11.44,13.55,1.157,10.88,103.6598,8.64,9.61,26.54,0,110,13.4,9.43,333.4
"2010-12-10 00:35:00",409331,2.38,357.7,5.258,0.427,8.57,103.6598,8.64,9.59,26.27,0,110,13.44,9.43,319.7
"2010-12-10 00:35:30",409332,3.406,354,3.284,0.674,8.02,103.6581,8.64,9.46,26.11,0,110,13.44,9.42,316.0
"2010-12-10 00:36:00",409333,3.654,352.9,3.62,0.734,8.45,103.64,8.59,9.47,26.11,0,110,13.44,9.38,314.9
"2010-12-10 00:36:30",409334,3.77,3.14,8.77,1.127,11.07,103.6304,8.57,9.51,26.16,0,110,13.4,9.35,325.1
"2010-12-10 00:37:00",409335,6.139,355.5,5.812,1.275,13.02,103.6265,8.56,9.71,26.38,0,110,13.4,9.34,317.5
"2010-12-10 00:37:30",409336,6.254,357.4,6.465,1.138,13.37,103.6259,8.56,9.67,26.45,0,110,13.4,9.34,319.4
"2010-12-10 00:38:00",409337,5.321,345.4,7.7,1.351,11.17,103.6259,8.56,9.62,26.31,0,110,13.4,9.34,307.4
"2010-12-10 00:38:30",409338,4.365,337.7,5.583,0.975,9.38,103.6259,8.56,9.61,26.19,0,110,13.4,9.34,299.7
"2010-12-10 00:39:00",409339,4.183,338.5,7.112,1.294,9.43,103.6259,8.56,9.42,25.98,0,110,13.4,9.34,300.5
"2010-12-10 00:39:30",409340,3.29,328.9,1.376,0.075,8.39,103.6262,8.56,9.42,26.06,0,110,13.44,9.34,290.9
"2010-12-10 00:40:00",409341,3.149,328.8,1.165,0.156,8.86,103.6293,8.57,9.52,26.17,0,110,13.44,9.35,290.8
"2010-12-10 00:40:30",409342,4.96,347,9.08,1.089,13.72,103.6324,8.57,9.71,26.28,0,110,13.4,9.36,309.0
"2010-12-10 00:41:00",409343,5.441,346.3,3.909,0.603,13.85,103.6273,8.56,9.75,26.35,0,110,13.4,9.34,308.3
"2010-12-10 00:41:30",409344,3.497,332.2,6.251,1.262,10.04,103.6259,8.56,9.52,26.19,0,110,13.4,9.34,294.2
"2010-12-10 00:42:00",409345,3.648,329.8,6.563,1.233,9.47,103.6259,8.56,9.41,26.13,0,110,13.4,9.34,291.8
"2010-12-10 00:42:30",409346,2.473,337.3,6.976,0.604,8.31,103.6253,8.56,9.49,26.18,0,110,13.39,9.34,299.3
"2010-12-10 00:43:00",409347,3.068,345.3,15.18,1.372,10.62,103.6253,8.56,9.48,26.15,0,110,13.4,9.34,307.3
"2010-12-10 00:43:30",409348,1.993,318.3,4.913,0.158,8.4,103.6259,8.56,9.39,26.09,0,110,13.44,9.34,280.3
"2010-12-10 00:44:00",409349,2.691,302.3,3.821,0.878,9.64,103.6132,8.52,9.44,26.32,0,110,13.4,9.31,264.3
"2010-12-10 00:44:30",409350,4.144,296.2,9.42,1.236,12.47,103.5906,8.47,9.6,26.79,0,110,13.4,9.25,258.2
"2010-12-10 00:45:00",409351,4.109,291.1,8.98,1.047,13.19,103.5607,8.39,9.62,27.14,0,110,13.4,9.17,253.1
"2010-12-10 00:45:30",409352,1.852,287.8,6.928,0.249,8.55,103.5581,8.38,9.38,26.98,0,110,13.44,9.17,249.8
"2010-12-10 00:46:00",409353,2.007,283.6,5.116,0.491,7.897,103.5581,8.38,9.28,26.88,0,110,13.4,9.17,245.6
"2010-12-10 00:46:30",409354,2.013,295.3,9.69,0.981,8.96,103.5581,8.38,9.46,27.05,0,110,13.4,9.17,257.3
"2010-12-10 00:47:00",409355,2.473,301.3,8.39,1.214,9.17,103.5581,8.38,9.25,27.06,0,110,13.4,9.17,263.3
"2010-12-10 00:47:30",409356,2.275,302.1,6.776,0.118,8.22,103.5581,8.38,9.28,27,0,110,13.44,9.17,264.1
"2010-12-10 00:48:00",409357,2.462,306.9,4.191,0.169,8.69,103.559,8.39,9.38,27.07,0,110,13.44,9.17,268.9
"2010-12-10 00:48:30",409358,4.128,316.7,7.181,1.236,12.62,103.5768,8.43,9.54,27.25,0,110,13.41,9.21,278.7
"2010-12-10 00:49:00",409359,3.822,321.9,7.531,1.198,12.39,103.5912,8.47,9.55,27.23,0,110,13.41,9.25,283.9
"2010-12-10 00:49:30",409360,3.134,321.4,8.77,1.199,10.82,103.592,8.47,9.43,27.06,0,110,13.41,9.25,283.4
"2010-12-10 00:50:00",409361,1.998,314.8,2.22,0.092,8.23,103.5926,8.47,9.34,26.93,0,110,13.45,9.25,276.8
"2010-12-10 00:50:30",409362,2.347,315.9,5.873,0.864,8.89,103.5929,8.47,9.49,27.08,0,110,13.41,9.25,277.9
"2010-12-10 00:51:00",409363,3.305,323.4,7.782,1.375,9.76,103.5938,8.48,9.32,26.9,0,110,13.41,9.26,285.4
"2010-12-10 00:51:30",409364,2.551,323.7,4.282,0.187,8.73,103.5932,8.47,9.42,26.88,0,110,13.45,9.26,285.7
"2010-12-10 00:52:00",409365,3.298,330.2,8.41,0.987,10.43,103.6172,8.54,9.53,26.84,0,110,13.41,9.32,292.2
"2010-12-10 00:52:30",409366,4.446,341.8,6.518,1.178,12.95,103.6317,8.57,9.62,26.81,0,110,13.41,9.35,303.8
"2010-12-10 00:53:00",409367,4.004,335.6,9.93,1.241,12.31,103.6419,8.6,9.61,26.75,0,110,13.41,9.38,297.6
"2010-12-10 00:53:30",409368,3.591,320.2,9.53,1.406,10.61,103.6609,8.65,9.56,26.71,0,110,13.41,9.43,282.2
"2010-12-10 00:54:00",409369,2.599,305.3,3.356,0.261,8.21,103.6655,8.66,9.44,26.64,0,110,13.45,9.44,267.3
"2010-12-10 00:54:30",409370,3.025,312.6,6.621,1.061,9.62,103.6638,8.65,9.55,26.74,0,110,13.41,9.44,274.6
"2010-12-10 00:55:00",409371,3.304,310.3,9.34,1.176,9.36,103.6627,8.65,9.49,26.72,0,110,13.41,9.43,272.3
"2010-12-10 00:55:30",409372,4.267,309.4,5.826,1.201,10.99,103.6399,8.59,9.57,26.82,0,110,13.41,9.38,271.4
"2010-12-10 00:56:00",409373,4.548,310.5,6.621,1.302,11.08,103.6331,8.58,9.57,26.88,0,110,13.41,9.36,272.5
"2010-12-10 00:56:30",409374,5.457,312.5,6.579,1.06,12.84,103.6126,8.52,9.66,26.97,0,110,13.41,9.31,274.5
"2010-12-10 00:57:00",409375,4.583,308.6,8.31,1.356,11.54,103.6087,8.51,9.6,26.97,0,109.9,13.41,9.30,270.6
"2010-12-10 00:57:30",409376,4.404,300.3,5.09,1.13,9.46,103.5872,8.46,9.37,26.84,0,110,13.41,9.24,262.3
"2010-12-10 00:58:00",409377,4.094,303.1,4.724,0.791,8.56,103.576,8.43,9.34,26.89,0,110,13.41,9.21,265.1
"2010-12-10 00:58:30",409378,4.78,307,5.97,1.056,9.43,103.5765,8.43,9.34,26.94,0,110,13.41,9.21,269.0
"2010-12-10 00:59:00",409379,5.149,313.1,7.299,1.26,10.98,103.5783,8.44,9.44,27.07,0,110,13.4,9.22,275.1
"2010-12-10 00:59:30",409380,4.857,308.7,6.065,1.291,11.97,103.5801,8.44,9.55,27.11,0,110,13.41,9.22,270.7
"2010-12-10 01:00:00",409381,5.459,311.3,7.374,1.261,12.6,103.5844,8.45,9.52,27.06,0,110,13.41,9.23,273.3
"2010-12-10 01:00:30",409382,5.248,299.5,5.388,1.069,10.01,103.5866,8.46,9.42,26.97,0,110,13.4,9.24,261.5
"2010-12-10 01:01:00",409383,5.439,301.4,6.163,1.254,10.3,103.5855,8.45,9.41,27.07,0,110,13.4,9.24,263.4
"2010-12-10 01:01:30",409384,4.258,297,3.327,0.18,8.35,103.5844,8.45,9.31,26.93,0,110,13.44,9.23,259.0
"2010-12-10 01:02:00",409385,4.625,300.3,6.016,0.919,9.68,103.5881,8.46,9.48,27.02,0,110,13.41,9.24,262.3
"2010-12-10 01:02:30",409386,5.539,304.5,6.622,1.293,10.98,103.5902,8.47,9.4,27.07,0,110,13.41,9.25,266.5
"2010-12-10 01:03:00",409387,5.928,306.6,6.802,1.188,12.5,103.6068,8.51,9.56,27.13,0,110,13.41,9.29,268.6
"2010-12-10 01:03:30",409388,5.953,306.3,6.784,1.261,12.04,103.5961,8.48,9.56,27.35,0,110,13.41,9.26,268.3
"2010-12-10 01:04:00",409389,5.974,309.7,7.477,1.396,11.52,103.5874,8.46,9.4,27.31,0,110,13.41,9.24,271.7
"2010-12-10 01:04:30",409390,5.614,306.4,7.331,1.592,10.23,103.5862,8.46,9.42,27.48,0,110,13.41,9.24,268.4
"2010-12-10 01:05:00",409391,5.335,305.2,4.157,0.712,9.06,103.5693,8.41,9.34,27.48,0,110,13.41,9.19,267.2
"2010-12-10 01:05:30",409392,6.306,305.9,7.943,1.191,10.41,103.5546,8.38,9.28,27.48,0,110,13.41,9.16,267.9
"2010-12-10 01:06:00",409393,7.03,310.1,6.85,1.2,12.25,103.5532,8.37,9.51,27.74,0,110,13.41,9.15,272.1
"2010-12-10 01:06:30",409394,6.604,314.9,5.253,1.218,12.49,103.5546,8.38,9.48,27.73,0,110,13.41,9.16,276.9
"2010-12-10 01:07:00",409395,6.658,306.3,7.089,1.26,10.86,103.5561,8.38,9.27,27.66,0,110,13.41,9.16,268.3
"2010-12-10 01:07:30",409396,5.569,300.7,4.975,0.898,9.44,103.5542,8.37,9.34,27.85,0,110,13.41,9.16,262.7
"2010-12-10 01:08:00",409397,5.829,302.9,4.117,1.078,9.1,103.5409,8.34,9.19,27.78,0,110,13.41,9.12,264.9
"2010-12-10 01:08:30",409398,5.283,299.1,1.069,0.092,8.53,103.524,8.3,9.22,27.88,0,110,13.45,9.08,261.1
"2010-12-10 01:09:00",409399,6.888,305.6,6.421,1.245,11.86,103.5222,8.29,9.45,28.1,0,110,13.41,9.07,267.6
"2010-12-10 01:09:30",409400,7.233,308.4,4.656,0.996,13.24,103.5237,8.3,9.41,28.11,0,110,13.41,9.08,270.4
"2010-12-10 01:10:00",409401,6.264,302.5,6.55,1.335,11.33,103.5245,8.3,9.33,28.02,0,110,13.41,9.08,264.5
"2010-12-10 01:10:30",409402,5.667,300,6.157,1.1,9.59,103.5248,8.3,9.17,27.85,0,110,13.41,9.08,262.0
"2010-12-10 01:11:00",409403,6.344,302.6,6.024,1.296,10.37,103.5265,8.3,9.29,27.72,0,110,13.41,9.08,264.6
"2010-12-10 01:11:30",409404,5.47,298.5,0.695,0.054,8.39,103.5421,8.34,9.16,27.54,0,110,13.45,9.12,260.5
"2010-12-10 01:12:00",409405,5.334,301.1,0.958,0.281,8.76,103.5387,8.33,9.28,27.73,0,110,13.41,9.12,263.1
"2010-12-10 01:12:30",409406,7.412,310.3,4.99,1.065,13.35,103.5426,8.34,9.46,27.68,0,110,13.41,9.13,272.3
"2010-12-10 01:13:00",409407,7.505,309.2,5.527,1.151,12.88,103.5474,8.36,9.44,27.64,0,110,13.41,9.14,271.2
"2010-12-10 01:13:30",409408,6.667,305.1,6.689,1.257,10.35,103.5494,8.36,9.22,27.45,0,110,13.41,9.14,267.1
"2010-12-10 01:14:00",409409,6.822,305.7,5.818,1.345,10.53,103.5443,8.35,9.31,27.54,0,110,13.41,9.13,267.7
"2010-12-10 01:14:30",409410,5.698,297,0.776,0.091,8.47,103.5542,8.37,9.19,27.46,0,110,13.41,9.16,259.0
"2010-12-10 01:15:00",409411,5.624,298.5,3.97,0.49,9.14,103.5593,8.39,9.32,27.51,0,110,13.44,9.17,260.5
"2010-12-10 01:15:30",409412,7.61,312.2,5.996,1.14,12.56,103.5559,8.38,9.39,27.67,0,110,13.41,9.16,274.2
"2010-12-10 01:16:00",409413,8.18,314.2,4.734,1.044,13.01,103.5359,8.33,9.48,27.84,0,110,13.41,9.11,276.2
"2010-12-10 01:16:30",409414,8.31,311.8,6.188,1.125,12.67,103.5254,8.3,9.4,27.87,0,110,13.41,9.08,273.8
"2010-12-10 01:17:00",409415,7.656,308.7,6.534,1.133,10.79,103.5254,8.3,9.28,27.69,0,110,13.41,9.08,270.7
"2010-12-10 01:17:30",409416,7.639,307.7,7.017,1.219,10.24,103.5254,8.3,9.29,27.8,0,110,13.4,9.08,269.7
"2010-12-10 01:18:00",409417,6.774,299.1,2.781,0.162,8.46,103.5203,8.29,9.18,27.69,0,110,13.44,9.07,261.1
"2010-12-10 01:18:30",409418,8.34,306.9,7.004,1.229,12.08,103.5164,8.28,9.3,27.8,0,110,13.41,9.06,268.9
"2010-12-10 01:19:00",409419,8.97,307,5.157,0.908,13.45,103.5054,8.25,9.38,27.92,0,110,13.41,9.03,269.0
"2010-12-10 01:19:30",409420,8.25,303.4,5.989,1.191,12.35,103.5116,8.27,9.34,27.88,0,110,13.41,9.05,265.4
"2010-12-10 01:20:00",409421,8.15,304.8,6.132,1.213,12.21,103.5161,8.28,9.34,27.89,0,110,13.41,9.06,266.8
"2010-12-10 01:20:30",409422,7.205,298,6.902,1.251,9.89,103.5203,8.29,9.14,27.55,0,110,13.41,9.07,260.0
"2010-12-10 01:21:00",409423,6.066,291.7,1.428,0.236,8.46,103.5254,8.3,9.14,27.35,0,110,13.45,9.08,253.7
"2010-12-10 01:21:30",409424,6.05,294.2,2.383,0.167,8.84,103.5254,8.3,9.21,27.21,0,110,13.45,9.08,256.2
"2010-12-10 01:22:00",409425,7.603,302.1,6.819,1.201,12.37,103.5424,8.34,9.37,27.2,0,110,13.41,9.13,264.1
"2010-12-10 01:22:30",409426,8.07,301.6,6.17,1.143,13.37,103.5593,8.39,9.42,27.02,0,110,13.41,9.17,263.6
"2010-12-10 01:23:00",409427,8.11,300.4,5.408,0.982,13.09,103.5698,8.41,9.49,26.87,0,110,13.41,9.20,262.4
"2010-12-10 01:23:30",409428,6.554,292.6,5.112,1.23,10.13,103.5915,8.47,9.38,26.77,0,110,13.41,9.25,254.6
"2010-12-10 01:24:00",409429,4.919,291.6,6.362,0.869,9.27,103.5997,8.49,9.38,26.41,0,110,13.41,9.27,253.6
"2010-12-10 01:24:30",409430,5.228,289.9,3.048,0.318,8.62,103.6263,8.56,9.38,26.27,0,110,13.45,9.34,251.9
"2010-12-10 01:25:00",409431,6.78,296.9,7.194,1.33,12,103.633,8.58,9.47,26.21,0,110,13.41,9.36,258.9
"2010-12-10 01:25:30",409432,6.741,304.6,7.485,1.277,12.94,103.6576,8.64,9.55,26.17,0,110,13.42,9.42,266.6
"2010-12-10 01:26:00",409433,6.167,304.9,6.618,1.249,12.05,103.661,8.65,9.62,26.13,0,110,13.42,9.43,266.9
"2010-12-10 01:26:30",409434,6.418,304.2,8.08,1.246,12.53,103.6675,8.66,9.64,26.05,0,110,13.41,9.45,266.2
"2010-12-10 01:27:00",409435,4.649,300,3.832,0.926,9.18,103.6893,8.72,9.56,25.9,0,110,13.41,9.50,262.0
"2010-12-10 01:27:30",409436,4.245,290.7,2.24,0.215,8.57,103.6949,8.73,9.47,25.69,0,110,13.45,9.52,252.7
"2010-12-10 01:28:00",409437,5.219,287.9,3.559,0.243,8.61,103.6949,8.73,9.57,25.98,0,110,13.45,9.52,249.9
"2010-12-10 01:28:30",409438,7.454,294.6,5.932,1.273,12.49,103.6836,8.7,9.72,26.5,0,110,13.42,9.49,256.6
"2010-12-10 01:29:00",409439,7.87,291.8,6.323,0.959,13.94,103.6672,8.66,9.77,26.34,0,110,13.42,9.45,253.8
"2010-12-10 01:29:30",409440,7.197,292.2,6.736,1.295,12.66,103.661,8.65,9.72,26.38,0,110,13.42,9.43,254.2
"2010-12-10 01:30:00",409441,6.977,297.3,6.731,1.249,12.46,103.6621,8.65,9.71,26.06,0,110,13.42,9.43,259.3
"2010-12-10 01:30:30",409442,5.705,287.5,8.46,1.191,9.56,103.6777,8.69,9.48,25.78,0,110,13.42,9.47,249.5
"2010-12-10 01:31:00",409443,5.016,286.2,2.911,0.176,8.4,103.6876,8.72,9.5,25.75,0,110,13.45,9.50,248.2
"2010-12-10 01:31:30",409444,4.985,288.5,2.168,0.103,8.84,103.6938,8.73,9.58,25.72,0,110,13.45,9.51,250.5
"2010-12-10 01:32:00",409445,6.581,293.8,5.895,1.245,12.78,103.6949,8.73,9.81,25.86,0,110,13.41,9.52,255.8
"2010-12-10 01:32:30",409446,6.998,294,4.525,0.987,14.01,103.6949,8.73,9.84,25.86,0,110,13.42,9.52,256.0
"2010-12-10 01:33:00",409447,6.57,294,7.226,1.159,13.01,103.6986,8.74,9.78,25.72,0,110,13.41,9.53,256.0
"2010-12-10 01:33:30",409448,5.965,294.2,7.251,1.428,10.34,103.7124,8.78,9.68,25.59,0,110,13.41,9.56,256.2
"2010-12-10 01:34:00",409449,4.875,289.3,3.892,0.597,8.97,103.7251,8.81,9.69,25.49,0,110,13.44,9.59,251.3
"2010-12-10 01:34:30",409450,4.396,285.9,3.009,0.266,8.61,103.7288,8.82,9.6,25.37,0,110,13.44,9.60,247.9
"2010-12-10 01:35:00",409451,4.996,288.5,6.647,1.197,9.85,103.7288,8.82,9.61,25.36,0,110,13.42,9.60,250.5
"2010-12-10 01:35:30",409452,5.931,293.2,7.605,1.37,12.33,103.7288,8.82,9.78,25.41,0,110,13.42,9.60,255.2
"2010-12-10 01:36:00",409453,6.544,294.6,6.304,1.046,13.55,103.7288,8.82,9.87,25.52,0,110,13.42,9.60,256.6
"2010-12-10 01:36:30",409454,6.448,294.6,7.594,1.251,12.67,103.7288,8.82,9.93,25.63,0,110,13.42,9.60,256.6
"2010-12-10 01:37:00",409455,6.764,296.3,7.945,1.135,11.86,103.7288,8.82,9.83,25.42,0,110,13.42,9.60,258.3
"2010-12-10 01:37:30",409456,5.189,292.3,3.585,0.82,8.77,103.7305,8.82,9.66,25.15,0,110,13.42,9.61,254.3
"2010-12-10 01:38:00",409457,5.395,291.3,0.703,0.1,8.56,103.7297,8.82,9.66,25.31,0,110,13.45,9.61,253.3
"2010-12-10 01:38:30",409458,6.713,293.4,6.83,1.25,10.3,103.7288,8.82,9.68,25.66,0,110,13.42,9.60,255.4
"2010-12-10 01:39:00",409459,8.31,299,4.476,1.121,13.19,103.7147,8.78,9.92,26.17,0,110,13.42,9.57,261.0
"2010-12-10 01:39:30",409460,8.67,296.5,4.825,0.894,13.35,103.6943,8.73,9.85,26.4,0,110,13.42,9.51,258.5
"2010-12-10 01:40:00",409461,8.24,298.4,5.409,1.073,12.61,103.6672,8.66,9.8,26.58,0,110,13.42,9.45,260.4
"2010-12-10 01:40:30",409462,6.89,292.3,5.857,1.41,10.47,103.6523,8.62,9.72,26.76,0,110,13.42,9.41,254.3
"2010-12-10 01:41:00",409463,6.813,286.3,0.944,0.248,8.3,103.6277,8.56,9.48,26.64,0,110,13.45,9.34,248.3
"2010-12-10 01:41:30",409464,6.917,287.3,1.876,0.092,8.64,103.6234,8.55,9.5,26.74,0,110,13.45,9.33,249.3
"2010-12-10 01:42:00",409465,9.17,299.6,5.277,1.028,12.88,103.5958,8.48,9.65,27.11,0,110,13.42,9.26,261.6
"2010-12-10 01:42:30",409466,8.9,301,5.74,1.021,13.65,103.5932,8.47,9.66,27.22,0,110,13.42,9.26,263.0
"2010-12-10 01:43:00",409467,8.93,306.1,3.855,0.781,13.38,103.5814,8.44,9.68,27.26,0,110,13.42,9.23,268.1
"2010-12-10 01:43:30",409468,8.72,303.4,5.686,1.117,12.43,103.5619,8.39,9.57,27.11,0,110,13.42,9.18,265.4
"2010-12-10 01:44:00",409469,7.538,295.6,4.59,0.74,8.6,103.5596,8.39,9.33,26.88,0,110,13.42,9.17,257.6
"2010-12-10 01:44:30",409470,7.551,295.1,3.359,0.491,9.1,103.5593,8.39,9.4,27.07,0,110,13.45,9.17,257.1
"2010-12-10 01:45:00",409471,9.42,302.9,6.776,1.093,12.44,103.5593,8.39,9.46,27.24,0,110,13.42,9.17,264.9
"2010-12-10 01:45:30",409472,9.79,305,3.778,0.903,13.78,103.5593,8.39,9.62,27.32,0,110,13.42,9.17,267.0
"2010-12-10 01:46:00",409473,9.71,306.2,4.445,0.613,13.7,103.5593,8.39,9.61,27.27,0,110,13.42,9.17,268.2
"2010-12-10 01:46:30",409474,8.87,302.7,6.56,1.118,12.13,103.5593,8.39,9.53,27.33,0,110,13.42,9.17,264.7
"2010-12-10 01:47:00",409475,7.625,292.8,1.904,0.149,8.67,103.5593,8.39,9.28,26.89,0,110,13.42,9.17,254.8
"2010-12-10 01:47:30",409476,7.443,290.4,1.074,0.103,8.46,103.5593,8.39,9.29,26.97,0,110,13.45,9.17,252.4
"2010-12-10 01:48:00",409477,8.06,294.8,6.665,1.111,10.66,103.5599,8.39,9.45,27.21,0,110,13.41,9.17,256.8
"2010-12-10 01:48:30",409478,9.32,299.4,5.012,1.125,13.59,103.561,8.39,9.58,27.13,0,110,13.41,9.17,261.4
"2010-12-10 01:49:00",409479,9.46,300.7,3.88,0.767,13.76,103.5636,8.4,9.59,27.32,0,110,13.42,9.18,262.7
"2010-12-10 01:49:30",409480,9.26,300.1,4.924,0.926,12.91,103.5593,8.39,9.52,27.4,0,110,13.41,9.17,262.1
"2010-12-10 01:50:00",409481,7.638,293.8,5.882,1.146,10.16,103.5593,8.39,9.43,27.44,0,110,13.41,9.17,255.8
"2010-12-10 01:50:30",409482,6.668,287.3,1.226,0.108,8.08,103.5542,8.37,9.25,27.48,0,110,13.44,9.16,249.3
"2010-12-10 01:51:00",409483,6.929,287.1,3.778,0.608,9.28,103.5353,8.33,9.37,27.7,0,110,13.41,9.11,249.1
"2010-12-10 01:51:30",409484,8.36,295.3,6.364,1.163,12.59,103.5254,8.3,9.42,27.84,0,110,13.41,9.08,257.3
"2010-12-10 01:52:00",409485,8.85,297.2,3.098,0.654,13.38,103.5254,8.3,9.46,28.02,0,110,13.42,9.08,259.2
"2010-12-10 01:52:30",409486,8.71,295.9,4.5,0.408,13.59,103.5153,8.27,9.45,28.1,0,110,13.42,9.06,257.9
"2010-12-10 01:53:00",409487,7.586,290.4,6.386,1.26,11.08,103.4977,8.23,9.31,28.08,0,110,13.42,9.01,252.4